Theta_e
303 303 302 303 303 304 305 307 308 310 311 313 313 312 312 312 311 309 308 308 307 306 306 307 308 308 308 308 308 309 308 310 316 318 319 319 316 315 314 313 310 310 312 312 312 313 313 312 313 314 314 314 314 314 315 316 317 316 317 315 313 315 316 317 319 318 317 318 317 316 317 316 316 316 316 316 315 315 316 316 316 316 317 316 324 336 338 340
305 304 303 303 303 303 304 305 306 307 310 312 313 312 311 310 309 309 308 308 306 306 306 307 307 308 308 308 308 309 310 314 318 318 320 319 317 316 314 312 309 308 310 310 311 313 312 312 313 313 313 313 314 314 314 315 316 316 316 315 313 316 317 319 318 318 317 316 316 316 316 315 315 316 316 314 315 315 315 315 316 316 317 326 334 337 339 341
308 307 306 305 304 303 303 304 304 305 308 312 314 312 309 308 308 308 308 308 306 305 306 307 307 308 308 308 309 309 313 320 320 318 320 318 316 316 315 312 309 307 308 310 312 314 313 313 314 313 313 313 314 314 313 315 316 315 315 315 315 316 317 318 318 317 317 315 316 315 315 315 314 315 315 314 314 314 315 314 315 315 316 329 337 339 341 342
311 310 309 308 306 305 304 304 304 304 306 311 314 313 309 308 308 308 308 307 306 305 306 307 307 308 308 308 309 309 317 323 321 320 318 315 315 314 313 310 308 307 308 310 313 315 314 315 315 314 313 313 314 314 313 315 315 315 315 314 315 317 317 317 317 316 316 316 315 315 315 314 314 315 315 314 314 313 315 314 315 315 313 325 337 340 341 341
312 312 311 311 310 308 306 304 304 304 305 310 315 314 310 308 307 307 307 307 306 305 306 307 308 308 308 309 308 311 321 323 320 319 315 313 313 312 311 308 308 309 310 312 314 315 315 316 315 313 313 313 314 314 314 315 315 314 314 314 315 317 316 316 316 315 315 315 314 314 314 314 315 315 314 314 313 313 315 314 315 315 313 323 333 337 340 339
312 312 312 312 312 311 309 306 305 303 304 308 314 316 312 308 307 307 306 306 305 305 306 308 308 308 309 309 309 314 321 322 319 317 312 311 311 311 309 308 310 312 312 314 314 315 314 315 314 313 313 313 314 314 314 315 315 314 315 315 315 316 316 316 315 315 315 314 314 314 314 315 314 314 314 314 314 314 315 315 315 314 318 329 333 335 337 336
312 312 312 312 312 312 311 309 306 304 304 306 312 317 315 309 306 306 306 305 305 304 306 308 308 309 309 310 314 318 320 320 318 314 310 309 310 311 308 309 312 312 313 315 315 315 314 314 314 312 313 314 314 314 314 315 315 314 314 315 315 315 315 315 315 315 314 313 314 314 314 315 314 313 314 314 314 315 315 315 315 314 321 333 336 337 335 336
313 313 312 312 312 312 312 312 309 306 304 306 311 317 317 313 307 306 306 305 305 305 307 308 309 309 309 311 317 319 320 320 315 309 308 309 309 309 309 311 312 311 313 315 315 315 314 314 314 313 314 314 314 315 314 314 314 314 314 315 315 315 315 315 315 314 314 313 314 314 313 314 313 314 314 314 314 314 315 314 315 315 320 331 336 338 338 338
314 314 313 313 312 312 312 312 312 309 305 305 310 316 318 317 311 306 306 306 305 306 307 308 309 309 309 313 317 318 319 316 311 307 308 309 309 309 310 312 311 312 313 314 315 315 314 314 314 314 314 314 314 315 314 313 313 314 314 314 315 315 315 314 314 314 314 313 313 313 313 313 314 314 313 314 314 314 315 314 315 315 319 327 332 336 338 338
315 314 314 313 312 312 312 312 313 311 307 305 310 315 317 319 315 308 306 306 305 307 309 309 309 308 310 316 319 319 317 313 311 310 310 311 311 311 311 313 312 312 314 314 315 315 314 314 314 315 314 314 314 314 314 314 313 314 313 314 314 314 314 314 313 314 313 313 313 313 313 313 314 313 312 314 314 315 314 314 315 315 319 325 329 336 336 337
315 315 314 314 313 312 312 312 312 312 310 306 309 316 317 319 319 312 308 307 307 308 309 309 309 309 312 316 317 318 316 313 313 312 312 312 311 312 312 313 313 313 314 314 313 314 314 314 314 314 313 313 313 314 314 314 314 314 314 314 314 314 314 314 313 313 313 313 314 313 313 313 314 313 313 314 315 315 314 314 315 315 320 324 328 336 336 336
315 315 315 314 313 313 312 312 312 312 310 307 309 317 318 318 320 315 309 308 309 309 309 310 308 309 314 317 317 318 315 315 315 312 313 313 312 313 313 314 314 313 315 314 314 314 314 314 314 313 313 313 313 313 313 314 313 314 313 313 313 313 313 313 313 313 313 313 314 314 312 312 313 313 313 315 315 316 315 314 315 315 320 324 325 333 335 335
315 314 314 315 314 313 312 312 312 312 311 307 309 317 319 319 320 317 311 309 310 310 310 310 308 311 316 319 319 318 316 316 315 313 313 313 313 314 313 314 313 314 315 314 315 315 313 314 313 313 313 313 313 313 313 314 313 313 313 312 311 311 312 313 313 313 314 313 314 313 309 310 313 314 314 316 315 315 315 314 315 315 320 325 325 331 334 335
315 314 314 315 314 313 314 313 312 312 311 307 310 318 320 319 320 317 312 309 310 310 310 310 309 312 316 318 320 318 317 317 315 314 314 313 314 314 314 314 313 314 314 314 315 314 313 314 313 313 313 313 313 313 313 313 313 312 312 312 311 308 309 314 314 313 314 313 315 313 307 309 314 314 315 316 315 314 315 315 317 317 321 325 326 331 333 334
315 314 314 315 313 314 315 314 312 313 311 308 312 319 319 319 319 318 313 309 309 310 309 310 310 314 317 318 319 318 316 316 316 315 314 314 314 314 314 314 314 314 314 314 314 314 314 314 313 312 313 314 313 313 313 312 313 313 310 308 310 308 309 315 314 313 314 313 315 312 308 310 314 315 315 316 315 315 315 316 317 318 320 323 326 330 333 335
314 314 314 314 313 315 317 314 312 313 311 308 313 319 319 318 318 318 315 310 308 309 309 313 316 317 318 319 318 317 316 316 316 316 314 314 314 315 315 315 314 314 314 314 314 314 314 313 313 312 312 313 313 312 311 310 310 312 310 306 308 309 309 313 313 314 315 314 315 313 310 311 314 315 315 315 315 315 315 318 319 319 320 323 326 331 332 334
314 314 314 314 313 316 318 315 312 313 310 309 315 319 318 318 317 317 316 311 309 309 311 316 320 320 320 320 318 317 317 317 317 316 315 315 315 316 316 315 315 315 314 314 314 313 313 313 312 312 312 312 313 313 309 307 307 310 310 308 309 310 309 310 312 315 315 314 315 314 313 312 314 315 315 315 315 315 316 318 319 319 321 322 324 330 332 332
314 313 314 314 313 317 319 315 312 312 310 311 317 319 319 317 316 316 316 313 313 314 315 317 319 320 321 319 318 318 318 317 318 317 316 316 316 317 317 316 315 315 314 314 313 313 313 312 312 312 312 312 313 313 308 307 308 308 309 308 309 310 310 310 312 315 316 315 314 314 314 313 314 315 315 316 316 315 316 317 320 320 321 322 324 329 329 330
313 313 314 314 314 318 319 316 313 311 310 313 319 321 321 320 318 318 318 317 318 320 321 320 319 319 319 318 318 318 318 318 317 317 317 316 316 316 317 316 316 315 314 314 314 313 313 312 312 311 311 312 313 312 310 310 311 311 311 310 310 309 310 313 315 316 316 315 315 314 314 314 315 315 315 317 317 316 315 316 319 319 320 322 324 327 327 329
313 313 313 313 315 318 317 315 314 311 311 316 320 324 325 325 324 322 322 321 321 322 322 320 319 318 318 318 318 318 318 317 317 317 316 316 316 316 316 315 315 315 314 314 314 314 313 312 312 311 312 313 313 313 313 312 313 313 312 312 312 310 310 315 317 316 316 315 314 316 315 315 316 315 316 317 316 317 316 317 318 318 320 320 323 328 329 331
313 313 313 313 316 318 315 314 313 311 313 316 319 325 325 323 323 322 321 320 321 322 320 318 318 318 318 319 319 318 318 318 316 317 317 316 316 316 316 315 315 315 315 315 315 315 314 312 312 314 315 314 314 315 314 314 313 313 312 311 312 311 311 315 317 316 316 315 314 316 316 315 316 315 316 317 317 317 316 318 318 318 320 320 325 330 331 332
313 314 313 313 317 317 313 313 313 312 314 317 321 326 323 320 321 321 320 319 320 321 319 318 317 317 318 319 320 320 318 318 316 316 317 317 316 316 315 315 315 315 316 315 315 315 314 314 315 315 315 315 315 316 315 315 314 313 312 312 310 311 312 314 316 316 317 315 314 317 315 314 316 315 316 317 317 318 318 318 318 319 320 319 326 331 332 331
313 313 312 315 318 314 312 313 312 313 315 319 325 324 321 320 320 320 320 320 322 321 319 319 318 317 317 318 319 319 318 318 317 317 317 316 316 316 315 316 316 316 316 315 315 314 313 315 317 316 315 315 315 316 316 315 314 313 312 310 309 311 311 310 313 317 317 316 316 317 315 315 317 316 317 317 317 317 318 318 318 319 320 318 326 331 332 330
313 313 312 315 316 312 312 312 311 314 316 319 323 320 319 319 319 320 320 322 323 320 318 319 318 318 317 317 319 318 318 318 318 318 317 317 316 316 316 316 316 315 316 316 316 314 313 315 317 316 316 316 315 316 315 314 313 313 312 310 309 311 311 310 314 317 316 316 317 316 313 314 317 316 316 318 318 317 317 318 318 318 320 318 324 330 331 331
313 312 313 316 315 310 311 313 314 316 316 318 321 318 318 319 320 321 321 326 326 318 317 318 317 318 318 318 319 318 318 317 318 318 318 318 316 316 316 316 316 315 316 316 316 315 315 316 316 315 316 316 316 315 315 314 311 310 312 312 311 312 313 313 315 315 312 313 316 316 311 311 316 316 317 318 317 318 317 318 318 317 319 317 323 330 330 330
312 312 313 317 313 308 314 320 318 317 317 320 321 317 317 319 321 321 324 328 326 318 317 318 316 317 317 319 318 317 319 317 318 319 318 318 317 316 316 316 316 315 315 316 316 316 316 316 315 315 316 315 315 315 314 314 310 309 312 314 314 314 314 313 314 312 309 310 315 316 312 311 314 316 318 319 317 318 318 318 318 317 319 317 322 330 330 329
312 311 314 317 313 311 318 320 318 319 319 320 318 315 318 321 323 323 325 326 324 319 318 318 317 317 316 318 318 318 319 318 318 318 317 317 316 316 316 316 316 315 315 316 314 315 317 317 316 316 315 315 314 313 314 314 310 310 314 315 316 315 315 315 314 312 311 312 314 315 314 311 311 315 319 320 318 319 318 318 319 318 320 319 319 328 330 327
312 311 315 318 314 314 318 317 319 321 318 318 318 317 321 322 323 325 327 327 326 320 319 319 318 318 318 318 318 319 319 317 317 317 317 317 316 315 316 315 316 316 317 316 313 315 317 316 316 316 316 315 314 314 314 315 312 312 315 316 316 316 317 316 314 313 313 313 311 312 313 312 311 314 318 320 318 318 319 319 320 319 320 321 319 324 328 327
312 311 316 318 317 320 321 321 324 321 318 320 321 320 322 323 325 327 327 328 326 320 318 320 319 319 318 318 318 318 317 317 317 317 316 317 316 315 315 315 315 315 316 317 315 317 318 317 317 316 315 315 315 315 314 315 315 314 316 316 316 316 316 316 315 313 312 312 311 311 312 312 311 313 316 320 318 317 320 319 319 321 319 321 320 322 326 326
311 311 315 318 320 324 324 325 325 320 320 322 323 322 323 327 330 329 327 327 325 320 319 321 322 320 318 317 318 318 317 318 317 316 316 317 316 316 315 316 315 315 316 316 316 317 317 317 316 315 316 316 315 315 314 315 315 315 315 316 316 316 316 316 315 313 313 313 312 311 312 312 312 313 314 320 321 319 320 320 319 321 319 320 321 321 324 326
312 312 315 319 320 320 322 324 321 319 322 323 324 325 326 329 330 328 327 326 323 323 322 323 323 321 319 319 319 319 318 318 318 318 318 317 317 317 316 317 316 316 316 316 317 318 318 318 317 316 317 316 316 315 314 315 315 315 315 315 315 316 315 315 314 314 316 316 313 312 313 313 312 313 315 320 322 319 319 320 320 320 319 320 320 321 324 326
312 312 315 319 319 319 322 323 320 321 323 324 326 326 329 330 326 325 326 324 325 325 323 324 323 321 322 321 320 319 319 320 320 320 319 318 318 318 317 318 317 318 319 318 318 318 318 318 318 318 318 316 316 315 313 314 315 315 315 314 315 316 317 317 316 316 317 316 314 314 315 314 313 315 318 321 321 319 319 320 319 319 319 320 319 321 324 325
312 312 316 320 320 320 322 322 321 323 324 323 324 325 329 328 323 323 325 324 325 325 322 323 322 322 323 321 321 322 321 321 321 321 321 319 319 318 318 318 318 319 319 319 317 316 318 319 319 319 318 317 316 314 313 313 314 315 314 313 314 315 319 321 319 318 318 316 315 315 317 317 315 317 321 321 319 320 319 319 319 319 320 321 319 320 323 325
312 313 318 321 321 321 323 323 323 324 323 324 326 327 328 325 323 323 323 323 323 321 321 322 321 322 323 321 322 324 322 321 321 321 320 320 320 320 320 319 319 318 319 318 317 316 318 320 320 319 318 318 317 315 315 314 315 316 315 315 315 315 318 320 319 320 320 318 317 317 319 318 317 320 321 319 319 319 319 319 319 319 320 321 320 320 323 325
315 317 320 322 324 325 325 323 322 323 323 325 328 326 325 324 323 323 322 322 321 321 322 321 321 322 323 324 324 322 320 320 321 322 321 321 321 320 320 320 319 318 318 319 319 318 318 319 319 319 318 317 318 317 316 316 315 317 317 316 316 316 317 318 318 318 319 320 320 319 319 318 320 324 321 318 319 318 318 319 318 319 319 320 321 321 322 325
321 323 323 325 325 323 321 320 321 322 322 325 326 323 322 322 322 322 322 321 320 321 321 321 321 321 322 325 325 322 320 319 320 322 322 323 324 322 320 320 319 318 318 320 320 319 319 320 319 318 318 317 317 317 317 317 316 316 317 316 317 318 318 319 320 319 319 322 321 318 317 318 320 323 321 320 320 318 319 318 317 319 319 319 321 322 322 324
323 326 324 322 320 319 318 319 321 321 321 324 323 321 321 322 320 320 321 320 320 321 321 321 321 320 320 322 322 320 321 320 320 322 321 322 326 325 321 319 320 319 318 319 320 319 320 320 319 318 319 318 317 318 317 317 317 316 315 316 318 319 318 319 321 321 322 323 321 317 317 321 322 321 321 321 320 319 319 319 318 318 319 320 321 322 321 321
322 327 324 319 317 318 319 319 320 320 323 325 321 319 321 321 319 320 319 319 320 321 322 321 320 320 319 319 319 319 319 319 319 320 319 321 325 324 321 321 320 318 318 319 319 319 319 320 320 318 319 319 317 318 317 317 317 316 316 317 318 319 322 325 323 323 324 324 323 319 317 321 321 320 321 321 321 321 319 318 319 318 318 320 319 320 320 320
323 327 324 318 317 318 319 320 321 322 326 326 321 320 321 319 319 319 318 320 321 321 322 321 320 321 320 319 319 319 319 318 318 319 319 321 324 323 321 321 321 319 319 319 320 322 321 322 322 319 318 320 318 318 317 317 317 316 316 317 317 317 321 325 324 323 324 324 325 322 320 324 323 319 320 321 320 320 319 318 320 319 319 320 319 319 319 322
326 327 322 317 317 319 320 322 323 325 326 323 320 321 321 319 319 319 318 319 320 320 320 321 320 320 321 320 320 319 318 319 318 319 320 320 321 322 322 321 321 321 320 319 321 322 322 323 323 321 319 319 318 317 317 317 317 317 316 317 318 318 319 321 320 320 322 324 326 325 324 327 327 320 318 320 319 319 319 319 319 319 319 319 320 320 320 322
327 326 320 316 318 320 321 324 325 324 322 320 320 320 319 319 320 319 319 319 319 319 319 320 320 320 321 321 320 319 318 319 318 318 320 320 321 322 323 321 321 321 321 320 321 322 322 323 324 324 323 321 320 318 319 320 319 318 319 318 319 323 324 322 320 318 319 321 322 324 324 325 325 321 319 319 320 319 318 319 319 318 319 319 320 321 321 322
327 324 319 318 319 320 323 324 321 320 321 319 320 318 317 319 319 318 318 319 319 319 319 320 320 319 321 321 320 319 318 318 318 318 319 320 320 322 322 320 320 320 320 320 321 322 322 322 324 324 323 322 321 319 321 322 321 319 320 321 324 327 326 326 324 323 322 321 321 322 323 323 322 322 321 319 319 319 319 320 319 318 319 319 319 320 321 323
325 320 318 319 319 320 324 323 318 319 320 318 318 318 317 319 319 318 318 319 319 320 320 321 320 319 320 320 320 319 318 318 318 318 318 318 318 321 320 318 319 319 318 320 321 322 322 322 324 323 321 320 319 319 322 323 322 321 321 323 326 327 326 326 327 327 325 324 323 324 324 324 324 322 321 320 319 319 319 320 318 319 322 320 319 319 320 323
323 320 318 319 319 321 323 322 319 319 319 320 320 319 319 319 318 318 318 319 319 320 320 320 320 319 319 319 319 318 318 318 318 318 317 317 318 319 319 320 320 318 319 321 321 321 322 322 323 323 323 322 320 321 324 324 324 323 322 323 323 323 324 324 326 327 325 325 325 326 324 324 324 322 319 319 320 319 320 320 319 320 322 320 319 320 321 323
325 322 319 318 320 320 321 321 320 320 321 322 320 320 321 320 317 316 318 319 318 319 320 320 319 318 319 319 318 318 318 318 318 318 317 317 317 318 319 320 318 317 320 321 320 320 321 322 322 322 323 323 323 323 324 324 324 324 323 323 323 323 323 324 324 325 325 325 325 326 324 323 323 322 320 319 319 319 319 319 319 319 320 321 321 321 321 322
325 322 320 320 320 320 320 320 320 321 321 320 319 320 321 320 318 316 316 317 318 318 319 319 318 319 319 319 319 319 318 317 318 318 317 317 318 317 317 317 316 318 321 321 319 318 320 321 321 322 322 323 323 323 323 323 323 324 323 323 323 323 323 324 324 324 325 326 326 325 325 326 325 322 323 323 320 319 319 319 319 319 320 321 322 322 321 322
323 320 321 323 323 321 320 320 319 320 320 320 320 321 321 319 319 318 317 317 317 317 319 319 319 319 319 319 319 319 317 317 318 318 318 318 317 316 316 315 317 321 321 319 318 320 321 322 321 321 321 321 320 321 321 321 322 323 323 323 323 323 323 324 324 324 325 326 326 324 324 327 326 325 325 324 321 320 320 319 319 320 320 320 321 321 321 321
319 318 320 324 324 321 319 319 320 320 320 320 320 320 320 319 319 318 317 317 316 317 319 319 319 319 318 318 319 319 318 318 318 318 318 318 317 317 317 315 317 320 320 318 319 321 322 322 321 320 320 320 320 320 321 322 322 322 323 323 323 322 323 324 324 324 324 326 325 323 323 325 325 326 327 325 323 325 325 321 319 319 319 319 319 319 320 321
320 320 319 320 321 319 318 319 322 321 319 318 319 320 320 320 319 318 316 316 317 317 318 318 318 318 318 317 318 318 318 319 320 320 318 318 318 317 317 317 317 318 317 318 319 320 321 321 320 320 320 320 320 320 321 322 323 322 322 322 322 321 322 323 323 322 323 324 324 323 323 324 324 324 325 324 324 327 326 322 319 318 318 318 319 319 320 320
322 321 321 322 321 319 320 321 322 323 320 318 320 320 319 319 319 317 316 317 317 317 318 318 318 317 317 317 317 318 318 318 319 319 318 318 318 317 317 317 316 316 316 317 319 320 320 320 319 319 319 319 319 319 320 321 322 321 321 321 321 321 321 322 323 323 324 324 324 324 324 325 323 322 321 321 321 323 324 321 318 319 319 319 319 320 320 320
322 319 320 325 322 316 319 321 320 321 321 321 321 320 319 319 318 316 315 316 316 317 317 316 316 317 317 317 318 317 317 316 316 316 316 317 317 316 316 316 315 315 316 316 317 318 320 320 320 320 319 319 319 318 320 321 320 320 321 322 321 322 322 323 324 323 323 324 323 323 323 324 322 321 320 320 320 321 322 322 321 320 319 319 320 321 321 320
322 320 319 323 321 316 318 320 320 320 322 322 321 319 318 317 316 316 316 316 315 315 316 315 316 316 316 317 317 316 315 314 314 314 314 315 314 314 315 315 314 315 316 316 316 317 319 319 320 320 320 320 319 318 319 320 320 320 322 322 321 322 322 322 322 322 323 323 322 322 322 323 322 320 320 320 320 321 322 323 323 322 321 321 321 321 321 320
Wind_Speed
17 17 17 17 17 18 18 18 18 17 16 15 13 12 10 9 7 6 6 6 5 5 5 5 5 5 6 7 8 10 11 12 12 13 13 11 5 6 6 5 3 5 8 10 11 10 11 11 12 13 11 9 7 7 10 10 7 6 6 7 7 7 8 9 10 5 3 4 5 8 5 4 6 1 4 2 6 6 7 7 6 6 6 4 7 23 25 23
18 18 18 18 18 18 19 19 19 18 17 15 13 12 10 8 7 6 6 6 5 5 5 5 5 6 7 8 8 10 12 12 14 17 12 11 11 7 5 3 4 8 10 12 12 11 10 9 11 12 9 7 7 8 9 9 8 7 6 7 7 9 10 9 8 7 7 5 6 6 2 3 5 3 3 3 5 5 6 5 5 7 1 9 17 24 24 25
18 18 18 18 19 18 19 19 19 19 18 16 14 12 9 7 7 6 6 6 6 5 5 5 6 7 8 9 9 9 10 12 15 15 9 11 12 9 7 6 7 10 14 14 12 10 11 9 10 11 9 8 8 9 10 8 8 8 7 7 9 10 12 8 4 5 5 6 5 3 3 1 5 4 2 4 6 6 5 3 3 6 8 16 20 21 22 23
19 19 19 19 19 19 19 19 19 19 18 17 14 12 9 7 6 6 6 6 6 6 6 5 6 7 9 10 9 8 9 11 8 3 11 11 7 7 7 7 9 12 14 14 13 11 12 10 8 10 9 8 8 9 9 8 6 7 8 9 11 7 10 5 1 3 3 4 5 4 3 4 5 2 5 6 5 8 2 8 6 9 12 11 18 19 19 20
20 20 20 20 20 19 19 19 19 19 18 17 15 12 10 8 6 6 6 6 6 6 6 6 7 8 10 10 9 8 9 6 2 10 10 8 6 7 6 7 10 11 12 14 14 10 10 10 7 9 8 7 8 8 8 9 7 7 8 13 14 8 10 3 5 2 1 2 5 5 6 7 3 1 5 6 6 6 6 9 8 8 10 10 17 17 17 18
20 20 20 20 20 20 20 19 19 18 18 17 15 13 10 8 7 7 6 6 7 6 6 6 7 9 11 11 10 7 7 3 6 10 8 8 8 7 7 10 11 11 11 13 13 8 8 9 8 8 7 8 10 8 8 10 9 8 8 12 13 8 8 4 5 0 2 3 6 5 8 5 5 6 5 7 6 6 9 7 9 6 5 15 17 16 19 18
21 21 21 21 20 20 20 19 19 18 18 17 15 12 10 9 8 7 7 7 7 6 6 6 8 10 11 12 9 5 10 6 6 10 10 10 10 8 10 12 11 10 11 13 12 8 7 9 9 8 8 8 10 9 10 11 11 9 8 10 10 8 9 4 2 1 1 6 8 6 7 5 7 7 3 4 3 4 6 4 7 6 6 18 17 17 18 16
22 22 22 21 21 21 20 20 19 18 18 18 15 11 10 9 8 8 8 7 6 6 6 6 8 10 11 11 7 7 9 4 10 12 12 13 10 11 12 11 10 11 11 13 11 8 7 8 10 9 9 9 8 9 10 10 10 10 11 10 9 8 9 6 1 1 3 6 6 7 9 7 8 8 7 6 5 5 4 4 2 5 5 16 18 18 17 15
22 22 22 22 21 21 20 20 19 18 18 18 16 11 10 9 8 8 8 7 6 6 6 7 8 9 11 9 8 8 0 10 14 13 14 15 13 12 12 10 11 12 12 11 9 9 7 7 10 8 9 9 6 8 7 6 7 8 13 10 6 5 6 7 6 6 5 4 6 9 9 9 9 8 9 8 7 6 1 3 5 4 2 12 16 16 15 13
23 23 23 23 22 22 21 20 19 19 18 18 17 12 10 10 9 8 8 7 6 6 6 7 8 9 11 9 9 7 8 15 14 15 15 15 13 12 12 11 11 11 12 9 7 11 8 6 7 5 8 8 6 7 5 6 6 6 11 9 5 6 6 8 9 8 7 7 9 10 10 10 9 8 7 6 5 2 1 5 6 2 2 9 13 15 14 12
24 24 24 24 23 22 21 21 19 18 18 18 17 12 10 10 9 8 8 7 6 7 6 7 9 9 10 11 10 4 11 15 13 14 12 13 13 11 11 12 12 11 11 7 7 9 7 7 9 4 3 4 5 6 5 7 5 5 9 8 7 9 9 7 9 8 7 8 10 11 11 11 11 9 7 5 5 4 2 8 5 2 3 10 12 14 13 11
25 25 26 25 25 24 22 21 19 18 18 18 16 12 10 10 9 8 8 7 7 7 6 8 9 9 10 11 8 3 7 10 11 12 10 11 10 12 10 8 10 11 9 7 7 7 6 6 8 8 3 5 6 4 3 4 4 6 7 7 8 10 10 10 10 9 9 8 8 8 9 12 12 10 9 6 8 6 3 7 4 3 3 10 10 13 13 11
25 26 27 26 26 26 23 20 18 17 17 17 15 11 10 9 9 8 8 8 7 7 7 8 9 10 9 8 5 3 5 6 10 10 9 10 9 10 7 6 7 9 10 8 7 2 5 6 8 12 8 7 7 2 4 4 3 8 7 6 9 9 10 14 12 11 11 6 4 5 7 10 11 13 12 5 6 4 4 6 6 5 4 9 7 12 13 11
26 26 27 27 27 27 25 20 18 16 15 16 14 10 9 8 8 7 7 8 8 7 8 9 10 9 6 9 6 4 4 4 9 10 9 10 10 9 6 6 7 7 8 9 8 4 3 8 10 10 8 9 7 5 5 7 5 7 8 7 7 7 10 14 14 11 11 6 6 8 8 8 10 14 9 6 3 4 6 7 4 1 5 8 7 13 13 10
26 27 27 27 28 28 25 19 17 15 14 15 13 10 9 8 7 6 6 8 8 8 9 10 10 6 5 10 5 7 5 4 8 10 10 10 10 9 7 7 8 7 8 8 8 6 5 8 9 7 7 9 8 6 6 6 6 7 7 7 7 8 9 11 16 14 12 8 9 11 7 8 10 13 13 8 7 6 7 3 5 1 2 6 7 13 13 11
26 27 27 27 28 27 24 19 16 14 14 14 11 9 9 8 7 6 6 7 8 8 7 9 10 10 6 5 1 5 7 8 9 10 11 11 11 10 9 8 7 8 8 7 9 9 6 7 7 7 9 8 7 6 5 6 7 7 7 7 8 10 5 9 15 17 14 9 10 10 8 9 3 10 13 8 7 7 4 2 5 2 1 5 7 13 12 11
27 27 27 28 28 27 24 20 16 14 13 12 10 9 8 7 6 5 6 6 6 7 8 10 10 8 7 4 3 6 8 8 9 11 11 11 12 11 8 8 6 7 8 8 9 9 7 7 6 6 7 7 7 7 6 6 6 6 7 7 9 11 6 7 13 16 14 9 8 9 9 9 1 8 10 11 8 6 5 5 7 4 1 3 4 12 13 11
27 28 27 28 28 26 24 20 16 13 13 11 9 9 7 6 5 5 5 4 5 7 9 11 10 5 5 8 10 10 10 8 7 9 10 10 11 11 4 6 7 7 8 7 9 9 7 6 5 6 6 7 7 6 7 8 8 8 8 7 8 10 10 7 8 13 13 9 6 7 8 11 8 7 8 12 11 7 5 5 8 7 4 5 4 8 12 11
27 28 27 27 28 26 23 20 15 13 12 8 8 9 6 5 4 4 6 6 5 5 4 5 8 5 2 5 7 3 7 8 4 5 8 9 8 8 7 8 8 6 8 6 8 9 6 5 6 6 6 8 9 9 10 11 13 12 9 7 8 8 10 10 7 12 10 9 8 9 8 11 12 11 11 9 11 8 6 5 6 8 6 6 4 6 11 11
27 28 27 27 26 25 23 19 13 11 10 6 6 8 5 3 2 2 5 8 8 8 8 3 10 8 5 3 3 6 9 4 4 5 8 9 7 8 7 8 7 6 8 7 7 9 6 5 7 7 9 10 11 12 12 15 17 14 12 10 11 10 9 10 8 16 11 7 7 8 9 12 11 13 14 8 13 9 7 6 6 7 6 6 4 8 12 10
28 28 27 27 26 25 22 17 11 8 8 6 6 6 4 5 4 3 2 7 10 11 10 6 5 8 6 2 5 6 2 4 7 6 7 9 8 8 5 6 8 6 7 10 9 7 7 7 7 9 12 11 14 13 9 14 16 11 10 10 11 9 7 9 6 11 11 5 5 7 10 14 12 14 15 6 13 12 8 7 7 8 7 6 7 11 13 10
27 27 27 26 25 24 21 14 8 5 7 6 5 6 4 7 6 7 7 6 5 5 8 6 6 9 5 3 2 2 6 5 7 8 9 7 8 7 6 7 8 5 7 9 8 5 5 7 9 12 12 14 18 12 3 11 11 5 6 9 9 8 8 9 11 11 7 5 6 7 8 12 13 14 13 9 9 9 10 8 7 8 8 7 10 13 12 11
27 27 26 25 25 24 18 10 3 3 5 7 8 5 5 8 9 9 7 6 5 6 9 6 6 8 5 6 7 6 8 6 6 7 11 7 8 7 7 7 6 7 8 7 8 6 5 7 9 10 10 13 16 6 4 10 9 6 7 8 8 9 10 7 9 13 8 5 9 7 6 9 12 13 12 11 12 9 11 10 10 9 9 8 11 14 13 12
27 26 25 25 24 21 15 6 4 5 7 10 7 5 9 9 10 11 8 5 5 5 6 3 3 4 3 2 7 10 9 6 5 3 11 5 7 7 8 8 8 8 7 9 12 10 10 9 9 11 7 7 7 2 5 10 7 9 10 9 10 11 13 10 9 10 7 9 12 9 6 6 9 12 12 10 11 14 13 13 14 12 10 9 10 15 15 14
26 26 24 23 21 18 12 5 4 3 5 6 5 9 10 10 10 11 7 3 3 2 2 3 3 1 3 1 6 10 8 5 5 3 9 4 9 7 5 4 6 8 7 10 10 9 11 8 8 13 10 6 6 4 8 10 7 9 11 12 13 14 15 15 14 12 7 7 9 9 7 6 8 10 12 9 8 14 12 11 13 10 10 9 10 13 13 13
26 25 22 20 19 17 10 3 3 7 6 3 8 10 11 10 11 10 4 0 1 1 2 2 2 2 1 5 7 7 7 6 4 3 5 4 8 7 6 4 4 7 10 9 5 6 8 6 8 11 7 5 7 7 10 11 8 7 9 12 14 14 15 15 16 12 7 7 7 8 8 5 6 8 10 9 10 14 10 9 11 6 8 10 9 12 12 13
25 24 21 16 15 16 9 4 9 10 5 7 9 10 10 9 9 7 1 2 2 1 0 2 3 2 2 7 9 6 2 3 5 4 3 4 5 5 5 6 5 4 7 6 4 5 6 8 10 8 8 8 7 8 10 10 9 7 10 13 12 12 13 13 14 11 8 10 9 10 11 7 7 7 8 10 12 13 9 8 9 7 9 10 9 12 14 14
24 23 18 12 10 10 9 9 12 9 7 9 9 8 9 9 7 4 3 2 3 3 1 4 4 1 4 6 9 6 3 2 6 4 2 2 3 5 6 7 8 7 7 6 6 6 4 8 9 8 10 9 6 8 11 11 10 8 13 15 12 12 13 11 10 9 9 9 9 10 11 9 7 7 8 11 12 12 11 9 9 10 12 9 8 12 15 15
24 21 16 12 8 5 7 10 10 9 9 9 8 7 8 7 4 2 3 2 3 1 1 6 7 4 6 7 8 7 3 4 4 4 3 5 5 7 7 6 8 10 10 9 9 7 5 6 8 11 11 8 5 7 9 12 9 7 14 15 13 11 11 10 9 9 9 9 9 11 10 8 7 7 7 8 9 10 10 9 10 12 12 10 8 10 13 14
23 20 13 11 9 6 8 9 7 8 10 9 9 8 5 3 2 3 1 3 2 1 2 2 4 3 3 5 8 4 2 3 2 3 5 5 7 7 6 7 7 8 9 9 11 10 9 9 7 7 8 9 12 11 10 14 12 9 13 12 10 9 8 8 7 8 9 8 10 12 13 11 8 7 5 4 6 7 5 6 8 11 12 11 10 10 12 13
21 17 10 8 9 9 10 7 5 10 10 12 12 8 3 1 2 1 2 3 2 3 3 1 1 1 4 3 4 2 6 2 3 3 3 2 4 6 4 6 5 5 7 6 8 10 11 10 7 6 7 7 11 12 9 11 11 7 7 8 7 6 6 7 7 7 7 8 9 12 14 13 10 7 5 6 6 3 3 5 7 10 10 10 10 11 12 11
18 15 8 6 8 9 9 7 10 11 11 13 11 5 3 3 0 2 4 4 1 3 4 3 4 2 2 2 4 3 4 1 4 6 3 2 4 3 1 2 1 2 4 4 6 8 9 9 6 10 10 6 6 8 7 8 8 6 5 6 5 4 5 6 6 6 8 8 9 11 13 11 9 6 5 9 9 7 8 7 7 7 5 6 9 11 11 11
15 11 6 5 8 9 9 10 11 10 11 13 8 4 4 2 3 4 4 5 2 2 3 3 6 7 4 4 2 5 3 1 4 6 3 2 4 3 2 1 4 2 3 5 7 6 6 7 7 10 9 3 4 5 5 5 6 6 7 6 7 6 6 7 6 6 8 8 10 12 11 8 7 5 6 8 6 4 4 4 3 4 2 2 6 10 12 11
10 7 4 4 7 9 10 10 9 8 10 10 5 4 4 2 5 5 5 6 4 5 5 4 5 7 6 3 1 3 5 5 5 4 5 4 5 5 3 1 5 4 4 6 6 6 7 7 4 5 5 2 4 7 6 6 6 7 7 6 7 6 6 6 6 7 7 7 9 11 8 5 5 3 4 8 5 2 1 3 5 3 2 1 4 8 11 11
5 3 4 7 10 10 9 9 8 6 7 7 5 4 3 5 5 5 5 5 5 6 6 5 5 4 4 4 3 2 2 4 4 5 8 6 4 4 4 1 3 2 4 4 4 5 8 7 3 4 6 6 10 8 6 8 8 5 5 6 6 6 6 6 7 9 9 7 8 8 6 5 5 4 4 6 4 3 5 5 6 5 4 4 5 6 8 9
5 4 5 10 9 7 7 7 6 5 5 6 5 3 5 5 5 5 5 6 5 6 8 4 3 3 3 2 5 3 1 2 6 5 5 7 7 5 4 3 1 2 4 4 4 5 7 7 6 8 10 10 10 9 7 8 6 3 4 6 4 4 5 6 7 9 8 8 7 6 7 7 6 5 3 6 6 5 7 7 5 4 4 4 4 3 5 6
10 7 5 6 7 7 6 6 7 6 6 6 3 5 5 4 6 8 6 8 8 6 8 5 3 4 4 1 3 5 4 4 5 4 3 4 5 7 7 3 2 4 4 4 5 5 6 9 9 11 13 11 9 11 12 10 8 5 4 5 2 2 3 4 6 6 6 8 6 7 10 6 5 4 6 11 8 5 7 6 1 2 2 2 3 1 3 5
11 10 5 5 8 7 6 8 8 6 5 5 1 5 5 5 7 8 6 8 9 8 6 4 3 4 5 5 5 6 6 5 3 4 4 1 0 5 7 3 2 4 4 4 5 5 7 9 10 12 13 11 10 10 10 10 12 12 8 5 3 2 2 1 3 5 6 7 6 8 11 6 4 3 5 8 10 8 7 4 1 2 2 2 4 3 4 5
9 7 3 4 7 6 8 10 8 5 5 4 2 3 4 6 8 7 7 8 7 6 6 5 5 5 5 7 6 6 6 6 6 6 4 3 1 2 4 4 4 5 6 7 4 4 5 6 8 10 11 10 7 6 7 7 10 12 10 7 6 6 4 3 3 4 5 7 6 7 8 3 2 1 5 2 6 4 6 4 2 2 1 1 4 2 4 4
8 4 1 5 8 7 11 11 7 5 3 2 4 3 4 5 5 6 6 7 6 3 5 7 7 6 6 8 7 6 7 7 7 5 4 5 4 1 1 4 6 6 8 9 4 3 1 4 6 10 11 9 6 6 7 7 7 7 8 8 6 5 5 5 6 6 6 6 5 6 6 2 0 1 4 1 0 3 3 4 4 4 1 1 2 3 2 2
7 3 2 5 9 10 12 9 5 3 1 4 5 6 6 5 5 5 6 8 6 2 4 6 7 6 6 7 7 7 8 7 7 5 3 5 5 2 2 5 8 8 8 9 6 2 1 4 5 8 8 7 9 8 7 10 11 7 7 7 3 1 4 7 8 8 7 6 5 6 7 2 0 1 2 0 1 1 3 5 3 5 4 1 1 2 2 3
5 2 2 5 9 11 10 5 2 5 4 5 5 6 5 4 5 5 5 7 5 3 5 5 5 6 5 6 8 8 7 7 8 6 3 4 5 3 3 5 9 10 8 7 5 3 2 4 6 7 8 10 15 14 8 10 16 12 9 6 1 2 3 7 8 4 2 6 6 7 7 1 1 1 2 2 1 2 5 7 4 4 6 3 2 4 3 3
0 3 2 3 7 8 7 3 5 5 4 4 5 6 4 4 5 5 4 5 4 4 5 5 5 5 5 6 7 9 9 7 8 8 6 7 4 2 2 6 7 8 7 5 4 3 1 4 5 8 9 10 15 14 7 7 11 10 9 4 1 1 3 4 6 2 1 5 7 6 6 2 1 1 5 5 2 1 1 4 4 4 6 5 4 7 5 3
4 3 3 3 6 8 5 3 4 3 4 5 5 6 3 3 6 6 6 6 5 5 5 4 5 5 5 6 6 9 9 6 6 8 8 8 4 5 4 2 2 6 6 2 3 3 2 4 4 6 8 7 8 7 2 7 7 5 7 8 6 6 4 3 4 2 1 8 8 7 8 3 2 2 3 3 3 1 2 2 4 5 5 4 5 6 6 4
5 1 3 4 5 5 3 4 4 2 4 3 4 4 3 2 3 4 6 5 3 5 6 4 6 6 5 7 7 8 8 7 7 7 8 9 6 1 3 1 4 6 2 4 1 3 4 5 5 6 8 8 8 5 1 1 3 4 7 11 12 11 8 6 3 2 3 7 6 7 8 4 3 4 2 4 5 3 1 2 5 7 5 4 4 5 6 6
4 1 2 2 2 2 4 4 6 5 3 2 1 3 4 2 3 3 5 4 3 4 5 4 6 6 6 7 9 8 9 9 8 8 8 9 8 6 7 12 12 4 7 6 0 3 4 6 8 8 9 9 10 9 4 3 4 6 8 11 13 10 4 1 3 3 3 5 6 6 7 8 6 3 4 5 5 3 3 4 5 6 6 5 5 5 6 6
3 2 3 3 1 2 3 3 5 5 4 3 1 2 3 3 3 4 2 2 3 5 5 3 5 6 6 8 9 8 10 11 9 10 10 9 10 10 13 16 11 5 6 1 2 2 4 7 9 11 12 12 13 14 11 9 9 10 10 12 13 11 7 5 7 7 3 4 7 7 6 7 6 3 6 10 8 3 4 5 4 5 6 5 4 5 7 8
3 2 3 2 3 3 4 5 4 4 4 4 1 1 3 3 4 3 1 2 4 6 4 3 5 7 8 9 8 8 9 10 9 10 10 9 11 11 12 15 8 4 1 5 4 2 3 5 9 12 13 13 14 15 14 12 11 10 11 13 14 14 12 10 12 12 8 6 8 9 11 11 6 2 5 10 8 5 7 9 6 6 8 8 6 6 7 10
3 2 2 2 2 4 4 5 5 1 2 3 1 1 2 2 3 6 6 4 4 4 4 5 6 7 9 9 8 8 8 8 8 10 10 10 11 10 9 11 7 1 3 4 3 1 1 4 9 12 13 14 14 13 11 11 12 11 12 14 14 14 15 15 15 13 12 13 14 15 17 14 8 3 3 5 5 3 7 11 9 8 7 4 3 3 7 8
4 3 3 3 0 3 2 2 6 6 2 2 1 1 1 2 2 4 6 5 4 5 5 6 8 8 9 9 8 8 9 9 10 11 11 11 11 9 8 8 8 9 9 6 2 1 1 5 9 10 11 12 13 12 10 10 12 12 12 13 14 15 16 16 14 10 10 14 14 15 15 10 5 4 4 4 4 6 9 12 7 4 5 8 10 10 10 11
7 3 2 5 1 2 1 2 5 6 0 3 1 2 2 4 3 3 6 5 4 4 5 7 8 8 8 9 9 9 10 12 13 14 13 13 12 10 9 9 10 11 10 8 7 3 3 5 9 9 8 10 11 12 10 10 11 13 13 12 12 13 12 9 7 5 5 7 8 10 10 5 4 7 8 7 6 5 7 9 7 4 6 7 8 8 10 11
9 3 1 5 3 0 3 4 3 2 3 4 4 3 3 4 5 4 5 3 2 2 4 6 8 7 7 9 9 10 12 14 15 15 13 13 14 13 11 12 13 11 9 9 8 6 4 4 6 6 6 9 11 13 12 10 10 9 7 4 3 6 6 5 7 6 3 3 4 6 6 2 1 4 7 9 9 6 5 7 8 5 2 4 5 3 6 9
Wind_Direction
4 3 2 2 1 357 354 353 351 347 343 339 334 330 326 318 305 296 295 292 291 283 282 282 285 295 301 308 309 311 304 294 285 256 234 231 201 126 153 181 216 219 202 208 228 225 205 212 223 219 221 225 228 237 239 236 234 236 228 242 254 253 255 250 261 296 34 358 32 56 39 317 292 62 70 294 257 251 247 246 254 273 266 244 73 73 72 69
4 3 2 1 0 358 355 354 353 351 347 344 337 334 331 323 313 301 295 290 281 274 275 278 282 296 301 309 315 320 316 298 276 261 241 212 205 216 243 251 250 219 210 219 219 216 210 204 209 213 216 221 218 218 229 223 214 234 239 232 246 253 257 266 304 4 41 355 3 41 24 306 304 344 55 305 303 303 267 257 232 243 232 78 74 74 72 71
6 4 3 2 0 359 357 353 353 354 350 346 342 337 333 327 315 303 293 285 278 272 269 275 285 297 303 310 317 324 317 294 271 255 215 182 194 215 235 249 245 215 210 222 226 223 222 213 201 205 214 222 220 210 216 208 195 219 237 243 235 244 269 280 327 357 9 354 330 344 35 340 293 316 317 313 327 294 281 349 306 301 25 67 76 74 72 74
8 6 4 2 0 359 357 354 352 354 352 348 344 339 334 327 313 300 290 280 276 270 267 277 286 296 307 310 318 327 305 282 274 190 156 162 182 210 224 230 221 208 212 231 252 251 243 243 208 203 221 224 217 210 217 205 189 213 216 245 244 253 295 286 127 296 321 353 298 314 13 271 264 264 282 316 303 263 353 41 18 358 2 55 85 81 79 78
7 5 4 1 360 358 356 354 351 352 354 350 345 340 333 322 312 296 287 281 276 272 271 280 288 300 306 309 318 319 297 276 115 112 136 159 182 201 206 200 197 199 212 236 257 254 248 253 219 207 230 237 222 205 221 214 206 233 220 240 255 282 307 341 66 315 328 347 289 296 276 265 290 275 269 277 262 277 359 23 35 19 352 43 79 82 81 78
6 4 3 0 358 355 354 353 350 350 352 351 345 339 333 321 311 295 284 277 273 269 271 281 293 302 304 310 319 302 275 288 109 132 147 157 177 185 183 182 185 200 225 250 253 233 228 236 216 212 227 241 237 212 220 220 210 234 231 235 250 267 284 353 46 10 64 280 255 248 253 270 299 276 259 247 254 315 330 355 29 3 24 66 75 79 80 80
6 4 2 358 356 353 351 350 348 348 348 349 345 337 332 321 308 295 285 275 268 266 268 281 295 301 310 315 312 261 249 263 124 141 147 153 171 173 176 178 182 206 232 253 246 218 219 223 214 215 222 237 241 223 221 222 210 228 250 250 249 244 251 284 32 114 126 256 260 271 270 286 277 273 282 254 268 309 301 8 28 330 65 81 80 83 84 85
5 3 1 358 355 351 349 347 345 345 345 346 344 336 329 320 309 296 287 276 264 259 260 278 295 301 319 322 293 251 250 214 134 143 151 152 160 164 172 179 196 219 234 246 240 218 221 224 222 218 225 235 236 226 218 218 212 224 249 259 251 230 239 257 287 255 237 237 254 271 275 280 270 280 288 282 298 278 295 25 353 287 89 93 88 89 91 90
4 1 359 356 354 350 346 343 341 341 343 342 341 335 324 319 307 293 285 277 260 253 257 273 291 305 320 315 280 278 230 121 131 142 146 144 147 165 179 185 201 223 236 244 246 242 236 220 225 227 244 261 258 232 194 195 215 218 235 252 267 233 227 249 249 239 238 241 245 248 252 256 255 267 270 265 274 259 289 342 265 257 106 98 94 96 96 93
1 359 357 354 353 349 343 340 338 338 340 340 338 332 322 318 305 289 280 273 253 249 258 272 291 308 309 284 271 288 116 122 134 139 143 144 147 172 196 206 204 219 238 237 233 246 248 245 259 261 263 280 274 241 188 203 236 232 237 246 264 258 238 231 236 234 235 236 237 245 249 253 247 242 250 230 227 229 67 278 260 252 90 92 94 103 102 96
358 356 354 352 351 349 343 337 335 334 335 338 335 329 322 317 306 286 269 267 253 253 261 275 289 300 299 277 276 286 134 136 138 144 153 148 155 181 199 218 216 223 243 230 219 247 265 293 309 291 264 316 275 237 214 228 252 266 263 262 245 252 258 236 230 237 246 239 232 244 252 259 250 233 249 218 153 85 321 276 277 272 112 97 98 107 108 100
354 354 352 350 348 347 343 336 332 331 331 335 333 327 323 318 313 288 261 261 253 251 260 274 288 297 295 275 265 247 160 155 146 152 165 158 173 195 200 220 219 232 256 240 229 249 261 297 308 260 261 337 281 252 247 233 231 253 269 285 255 242 244 236 233 228 234 243 230 239 250 253 244 226 238 208 139 118 245 274 280 259 128 101 99 103 105 105
351 351 349 347 346 344 343 335 329 327 326 331 331 325 322 319 317 293 260 253 251 255 265 274 287 289 287 280 263 190 180 178 160 160 171 178 196 203 211 228 220 248 274 276 284 284 234 269 285 266 284 292 266 12 328 259 220 247 250 261 258 247 231 218 220 224 228 227 191 226 251 249 234 217 223 188 140 146 217 243 229 229 133 107 98 96 104 112
350 349 347 345 343 342 343 337 327 324 322 328 329 323 323 318 313 299 263 248 250 256 260 270 283 286 274 272 268 153 159 185 169 179 184 192 213 207 201 224 230 251 262 274 304 335 256 265 269 272 287 271 273 356 300 250 231 251 247 242 243 254 245 211 196 209 222 188 173 233 251 259 240 205 180 123 165 249 256 222 193 258 91 110 110 104 111 115
348 347 346 343 341 343 344 338 326 320 319 325 327 320 322 316 305 294 263 245 247 252 265 274 267 264 269 265 248 135 165 213 189 200 200 199 221 214 190 209 226 238 251 258 273 280 262 264 266 265 264 250 260 292 269 237 226 234 243 245 230 245 254 200 177 191 215 186 188 233 253 270 246 184 148 134 188 232 264 203 117 358 87 120 114 107 114 115
346 345 344 341 341 345 346 342 328 317 318 323 321 318 323 320 307 291 263 240 241 247 261 273 241 222 260 285 144 147 198 213 203 203 204 207 223 220 194 200 219 221 239 250 254 268 259 249 257 256 263 253 239 252 262 250 228 214 229 249 241 245 235 167 172 191 209 197 190 219 259 284 255 144 141 153 184 189 223 129 120 238 169 121 115 112 117 118
345 344 343 340 342 346 347 345 331 317 319 320 317 321 325 317 305 291 267 236 242 244 238 268 263 237 257 274 229 216 211 210 204 196 199 209 228 235 193 186 227 218 223 235 232 248 246 233 245 249 257 261 249 244 242 246 240 216 217 242 259 258 236 178 181 189 200 205 206 215 244 268 179 140 163 168 186 188 184 169 163 210 166 132 139 126 125 124
344 342 342 340 342 346 347 345 333 320 317 315 317 325 324 309 299 285 263 223 229 236 236 260 269 267 252 242 247 228 193 187 196 198 197 199 230 260 242 212 236 211 214 233 219 226 230 213 231 240 230 233 244 245 237 238 242 231 214 219 247 260 264 249 187 175 186 186 221 238 238 253 249 238 214 170 175 192 194 195 171 183 191 183 184 136 129 132
341 342 342 340 342 344 345 344 334 320 313 314 324 322 315 302 283 254 237 211 201 227 263 229 213 271 305 201 239 233 130 131 162 204 202 198 218 250 254 245 251 230 227 229 199 207 218 209 225 242 240 232 228 228 243 251 248 252 255 246 248 247 253 254 181 157 183 183 208 241 237 248 251 252 247 170 158 184 201 216 172 175 187 180 189 135 128 134
341 341 340 340 342 342 343 341 330 319 309 311 325 307 291 294 273 217 220 222 225 247 289 220 187 245 276 162 111 72 73 100 211 223 201 196 210 228 230 234 246 245 243 244 210 194 200 228 228 231 238 241 239 228 236 255 258 274 298 297 280 258 234 245 191 160 188 221 224 248 259 265 266 261 258 185 153 177 205 227 202 193 199 187 175 123 125 131
341 341 340 341 341 340 342 337 327 314 295 304 323 292 292 346 0 0 311 249 236 235 264 273 226 250 254 301 44 67 42 212 214 231 188 177 211 221 195 210 236 232 231 251 248 197 188 236 247 248 250 250 249 233 230 260 261 271 295 289 281 272 256 281 267 174 172 184 213 250 266 266 263 264 269 213 164 175 192 226 214 200 211 186 144 123 129 132
342 340 341 341 339 340 341 334 322 296 284 295 281 251 287 352 360 340 324 293 277 256 263 260 259 268 253 271 324 342 281 219 208 228 177 168 229 216 172 197 230 239 231 245 252 215 197 238 249 253 258 260 254 244 285 299 286 278 275 269 269 278 280 282 273 245 196 162 210 235 258 268 257 250 258 250 226 190 171 211 224 197 209 191 141 126 133 136
342 340 341 341 340 340 340 334 306 262 260 254 249 253 328 350 348 328 306 286 300 295 274 242 229 245 216 221 208 206 247 226 232 221 155 165 248 230 218 231 251 255 236 234 241 238 241 241 238 243 247 253 257 264 322 300 295 280 261 262 260 260 271 263 250 256 255 272 274 251 243 274 274 260 246 232 245 233 179 195 229 206 200 197 150 133 140 144
343 341 341 341 339 341 343 324 236 236 241 245 265 358 1 345 341 330 320 298 282 260 257 238 231 224 154 209 193 194 226 224 245 198 132 166 257 239 236 252 284 275 234 234 237 233 249 263 279 285 281 264 270 327 281 267 267 265 255 256 265 262 265 265 255 255 258 275 278 266 245 257 266 269 260 225 223 237 202 189 218 204 188 197 155 139 146 149
343 341 341 342 339 342 341 295 239 271 262 262 347 11 351 342 349 339 330 323 289 221 161 177 210 116 82 134 180 192 218 219 240 154 124 206 261 272 278 264 274 276 262 255 254 248 250 257 276 276 274 272 283 291 265 259 254 260 252 242 252 265 270 274 275 268 253 246 249 254 260 255 247 252 261 249 233 242 216 197 222 193 173 197 158 141 148 150
343 340 342 343 341 342 337 298 338 327 294 0 19 355 341 345 353 345 328 39 27 136 128 183 180 55 173 182 174 201 217 206 212 150 133 229 263 288 307 278 233 259 282 289 293 284 270 261 269 280 291 283 278 273 260 260 259 256 255 248 247 254 258 268 279 280 272 264 260 263 267 269 263 252 254 258 254 251 228 214 235 199 182 207 172 149 150 153
342 341 341 343 348 348 343 327 328 316 313 21 3 337 345 349 349 350 308 141 66 15 243 153 115 80 201 170 174 196 185 165 183 184 182 192 226 265 272 270 265 250 280 301 282 283 298 280 270 285 291 264 260 268 255 253 261 263 270 271 272 270 260 254 261 263 263 273 272 262 258 261 266 260 255 251 251 256 241 220 234 232 226 219 184 157 151 161
342 340 339 342 349 343 338 325 321 335 9 4 343 337 350 344 345 339 263 134 61 333 312 66 57 235 205 169 195 202 98 138 184 179 268 181 193 259 244 253 287 284 268 271 264 270 289 275 276 296 286 261 246 254 259 257 247 263 287 285 286 290 284 277 269 266 266 269 267 260 258 262 261 254 251 247 246 249 239 220 219 233 240 231 197 169 161 169
342 339 336 338 333 324 335 320 315 353 4 342 340 344 338 335 333 265 259 55 59 293 103 48 6 268 198 164 203 221 167 196 197 150 226 247 224 250 263 270 301 304 288 279 274 268 265 281 313 321 308 306 293 261 281 290 267 292 317 301 282 280 283 285 280 275 272 267 265 265 264 265 262 254 253 255 255 251 235 215 216 226 226 218 205 186 178 176
338 335 333 333 334 338 324 297 297 354 353 342 343 329 319 347 322 256 247 62 62 1 83 52 345 321 267 185 183 231 268 232 267 180 206 238 205 205 265 278 277 288 287 283 281 281 278 270 273 282 282 304 306 296 308 307 290 308 331 315 286 281 288 289 283 281 279 269 264 267 268 269 267 259 258 266 269 272 256 214 219 231 224 205 191 190 193 185
334 330 325 322 335 336 313 299 351 359 349 345 336 316 291 225 258 296 35 35 343 339 5 254 172 94 268 237 126 328 300 284 303 257 218 245 200 189 246 259 243 263 275 273 285 304 299 269 250 276 271 265 286 290 292 287 279 287 315 321 319 312 298 288 279 272 263 260 265 268 269 266 262 261 258 256 256 260 258 243 239 240 230 208 184 183 194 191
329 322 310 300 325 322 300 318 349 343 341 339 326 304 275 255 298 50 40 30 334 331 354 309 314 308 219 85 80 252 257 18 327 292 262 256 239 213 238 299 327 307 294 300 301 319 313 287 301 316 294 249 257 284 278 267 270 263 256 270 285 291 280 269 262 254 251 261 267 275 280 270 259 268 268 254 240 209 206 225 256 263 237 209 184 179 189 189
324 314 300 292 310 301 288 308 325 325 332 329 312 279 279 303 39 36 33 41 55 22 353 294 321 334 340 34 4 281 295 201 240 266 282 277 263 248 175 275 320 273 250 290 290 293 295 283 298 307 295 243 220 265 272 262 260 248 240 243 248 254 260 260 262 260 260 266 269 284 301 292 268 285 310 292 269 237 204 176 250 304 11 235 192 183 190 179
324 307 299 292 287 279 283 299 306 311 320 316 295 274 293 13 43 27 28 25 9 4 357 320 322 326 332 356 241 270 298 267 230 255 285 266 255 264 230 275 349 319 276 288 283 281 284 281 282 287 306 334 256 250 255 266 262 245 246 256 259 259 260 262 268 267 272 284 285 289 301 291 266 257 312 325 345 325 259 166 213 229 105 276 227 196 191 172
339 316 295 278 270 272 281 283 285 302 314 308 290 289 353 45 29 17 21 359 354 356 345 337 326 319 0 359 305 239 258 295 317 304 292 284 264 265 257 275 35 5 313 318 303 299 289 282 298 290 281 272 263 255 242 259 269 255 243 249 254 265 273 278 279 275 280 287 283 278 269 275 276 228 239 282 276 248 241 217 227 222 180 215 236 218 199 180
317 290 260 267 276 288 292 284 289 306 305 295 303 3 53 50 3 14 9 331 350 352 327 339 355 338 39 11 299 326 66 326 330 320 317 325 322 316 283 258 159 211 275 299 300 307 290 283 314 306 279 261 263 273 262 254 259 255 243 249 273 320 299 283 279 280 282 270 259 257 253 265 274 261 302 302 260 238 252 240 220 210 190 204 221 228 220 202
314 299 266 281 316 319 307 312 316 316 296 284 321 31 49 49 10 20 8 331 350 356 328 352 25 343 4 352 312 0 359 330 332 319 320 342 329 315 302 279 239 257 277 296 288 287 281 280 287 279 268 264 269 275 272 266 264 264 252 242 258 353 302 280 273 270 268 262 258 258 256 262 262 252 13 350 316 295 298 298 256 167 152 196 224 229 257 233
318 306 292 314 336 328 324 330 320 306 283 279 38 48 30 52 39 22 3 342 356 357 343 8 22 358 3 349 350 2 338 321 336 320 313 346 254 304 317 329 308 292 295 290 284 296 296 286 281 273 264 261 260 263 269 264 253 253 263 261 233 227 245 284 274 261 260 261 261 265 263 266 262 229 50 348 306 299 302 310 319 213 157 226 245 206 242 254
298 285 291 331 337 336 335 328 314 292 279 299 68 86 25 41 57 40 5 352 1 356 349 356 359 9 1 341 347 349 330 329 342 337 326 339 3 322 324 325 309 311 307 294 304 358 328 291 282 282 276 273 265 253 260 254 237 238 250 252 238 237 227 190 220 242 258 266 265 271 271 271 277 99 87 291 277 316 321 312 306 306 111 248 279 236 231 241
280 273 27 340 330 340 334 316 293 272 266 2 44 80 56 31 55 71 34 2 6 14 2 352 350 4 348 336 346 340 331 336 335 332 330 335 349 13 303 313 312 316 313 302 311 42 333 268 275 285 286 283 264 241 253 265 253 233 242 248 241 252 249 222 227 229 232 249 257 267 269 256 281 106 117 216 328 54 332 305 302 310 313 201 287 308 297 282
283 303 55 336 330 340 330 305 278 297 68 79 46 52 56 5 353 40 37 16 22 31 6 354 349 360 351 340 342 336 332 331 324 332 350 342 346 5 332 323 319 321 317 302 302 349 308 268 274 289 291 276 264 272 292 295 282 257 247 253 232 249 272 249 240 227 225 246 250 262 271 244 170 265 128 67 343 81 340 334 315 292 296 298 324 303 293 289
269 341 31 338 339 342 326 312 18 16 39 75 68 62 50 328 332 14 24 21 27 10 359 358 351 0 9 352 336 328 331 326 320 328 344 340 350 16 348 325 320 321 316 304 316 28 18 281 270 273 272 268 275 280 287 291 287 278 269 264 145 108 253 256 259 243 249 281 273 271 278 240 136 237 138 140 232 52 9 336 309 286 302 322 319 280 261 256
272 42 55 346 339 328 311 344 58 35 32 55 72 70 43 337 348 11 29 28 13 1 5 355 345 351 8 3 331 319 331 329 319 327 332 332 356 88 11 343 336 322 311 309 336 30 6 266 267 274 275 273 271 265 262 302 301 286 282 299 37 159 208 249 283 331 71 269 266 262 260 230 110 128 116 124 182 118 67 291 292 301 316 328 298 279 274 261
8 28 85 15 319 296 295 26 63 70 55 34 41 60 50 359 1 354 10 31 8 349 353 342 343 342 344 349 321 313 329 326 316 327 325 324 5 116 129 88 14 313 315 356 12 0 314 278 285 294 294 289 272 259 298 352 345 319 307 319 319 314 348 349 316 5 252 253 254 255 255 228 145 174 126 138 214 250 40 357 322 294 279 280 274 286 299 279
319 260 105 35 320 304 358 28 12 65 98 68 46 47 16 18 59 7 349 13 24 346 336 334 338 331 332 337 321 316 321 308 310 323 314 314 330 113 166 223 291 304 354 96 31 324 296 285 289 289 291 295 296 288 246 354 337 324 314 315 313 320 348 3 331 296 270 272 271 271 277 276 184 191 201 219 217 228 278 258 273 282 291 310 320 336 323 300
315 299 64 43 330 359 51 29 355 14 68 118 110 44 4 8 85 61 350 352 56 11 334 329 332 333 344 340 327 324 316 310 316 316 309 313 314 318 328 319 314 338 105 118 257 296 276 273 274 273 274 278 290 294 265 215 264 283 284 287 288 289 298 314 276 262 287 311 293 268 279 295 291 303 332 294 260 240 247 238 246 273 303 332 337 332 309 296
317 6 6 359 320 33 67 32 14 28 18 2 33 20 2 353 9 38 2 314 33 24 343 328 334 335 345 336 327 322 313 314 319 312 312 315 310 320 329 320 324 54 94 33 323 298 273 273 276 277 276 276 282 287 279 262 265 269 268 271 274 272 258 236 244 249 264 300 278 258 260 274 287 331 331 307 306 320 276 259 248 263 281 284 283 296 298 290
349 38 32 347 319 13 29 357 8 51 12 351 13 357 355 355 345 352 304 299 7 20 356 331 327 329 338 334 322 316 314 316 317 315 321 321 316 323 321 311 317 99 74 336 14 7 287 278 282 286 287 286 284 285 285 278 269 263 263 267 271 270 262 250 248 250 250 255 266 276 278 277 280 294 292 289 296 329 308 284 269 262 266 262 241 236 259 269
0 55 50 326 337 34 30 340 320 337 28 5 45 86 9 351 330 328 334 349 359 355 339 324 323 334 338 328 314 310 316 320 318 317 321 318 315 315 308 307 311 306 312 336 26 47 286 274 285 295 300 297 290 285 282 271 263 262 264 266 268 269 265 259 254 251 251 249 254 268 276 282 290 287 281 271 242 227 272 272 269 267 272 311 348 305 283 280
348 25 11 304 54 78 53 311 285 265 186 124 132 104 339 323 3 340 331 348 349 335 333 324 327 336 328 315 307 306 313 317 312 310 310 307 306 303 298 303 306 306 312 315 302 158 184 286 300 305 301 296 294 294 291 279 275 276 273 267 267 266 262 259 256 251 254 257 262 275 278 283 314 340 343 305 244 228 253 264 278 321 12 27 24 3 335 315
335 343 337 301 341 90 241 250 273 283 17 95 75 68 343 330 22 349 306 326 356 344 331 326 330 331 315 306 306 309 316 314 303 298 296 291 287 285 287 290 294 300 303 300 296 266 213 284 305 307 298 294 297 305 310 303 291 280 271 269 275 276 272 275 279 271 276 288 304 307 292 285 341 350 340 316 296 295 298 305 330 26 55 48 41 14 332 309
339 318 295 303 313 112 258 247 241 300 28 46 28 35 6 345 6 350 320 334 27 5 330 333 337 326 309 309 316 319 318 310 301 298 295 287 281 276 270 269 273 282 289 291 294 288 259 273 297 306 303 295 300 312 314 304 294 282 268 260 296 301 304 313 305 298 303 311 308 301 293 277 313 341 337 320 317 335 355 352 344 338 85 92 77 39 334 334